Regional Weather Roundup
Issued by NWS Newport/Morehead, NC

Current Version | Previous Version | Text Only | Print | Product List | Glossary On
Versions: 1 2 3 4 5 6 7 8 9 10 11 12 13 14 15 16 17 18 19 20 21 22 23 24 25 26 27 28 29 30 31 32 33 34 35 36 37 38 39 40 41 42 43 44 45 46 47 48 49 50
000
ASUS42 KMHX 192022
RWRMHX
WEATHER ROUNDUP FOR EASTERN NORTH CAROLINA
NATIONAL WEATHER SERVICE NEWPORT/MOREHEAD CITY NC
400 PM EDT SUN OCT 19 2014

NOTE: "FAIR" INDICATES FEW OR NO CLOUDS BELOW 12,000 FEET
WITH NO SIGNIFICANT WEATHER AND/OR OBSTRUCTIONS TO VISIBILITY

NCZ015>017-031-032-045>047-102-103-192100-
NORTH COAST

CITY           SKY/WX    TMP DP  RH WIND       PRES   REMARKS
EDENTON        SUNNY     64  37  35 N12       30.04R
ELIZABETH CITY SUNNY     65  36  34 NW15G22   30.02S
KITTY HAWK     CLEAR     63  38  40 NW8       30.01R
MANTEO         SUNNY     62  40  43 NW9G18    30.03R

$$

NCZ045>047-081-094-103-104-192100-
CENTRAL COAST

CITY           SKY/WX    TMP DP  RH WIND       PRES   REMARKS
FRISCO         SUNNY     64  43  46 NW8       30.02S
SWANQUARTER      N/A     66 N/A N/A NW10G16   30.00R

$$

NCZ095-097-098-100-101-192100-
SOUTHERN COAST

CITY           SKY/WX    TMP DP  RH WIND       PRES   REMARKS
BEAUFORT       SUNNY     65  43  44 NW12      30.04S
CEDAR ISLAND     N/A     64 N/A N/A NW14      30.06S
JACKSONVILLE   SUNNY     66  41  40 NW7       30.04F
PINEY ISLAND   CLEAR     68  40  35 NW13      30.03S
WILMINGTON     SUNNY     68  43  40 N9        30.05S


$$

NCZ011>013-027>030-043-044-078>080-089-090>093-098-192100-
COASTAL PLAIN

CITY           SKY/WX    TMP DP  RH WIND       PRES   REMARKS
AHOSKIE        SUNNY     62  39  43 NW6       30.05S
CLINTON        SUNNY     66  46  47 N7        30.07S
ELIZABETHTOWN  SUNNY     67  41  39 NW6       30.06S
GOLDSBORO      SUNNY     66  44  45 NW8       30.05R
GREENVILLE     SUNNY     64  41  42 NW7       30.07R
HAVELOCK       MOSUNNY   67  40  37 NW12      30.05S
KENANSVILLE    SUNNY     65  40  39 NW8       30.07S
KINSTON        SUNNY     66  41  39 NW9       30.06S
NEW BERN       SUNNY     67  40  37 NW9       30.06R
RICHLANDS      SUNNY     64  39  39 NW6       30.06R
ROCKY MOUNT    SUNNY     65  39  38 NW9       30.06R
WASHINGTON     SUNNY     63  40  41 NW8G16    30.06R
WHITEVILLE     SUNNY     67  42  40 NW5       30.06S

$$

AMZ130-135-150-152-154-156-158-170-250-252-270-ANZ085-086-088-633-658-670-192100-
MARINE OBSERVATIONS

STATION/POSITION TIME  TEMP    WIND        PRES    WAVE   SWELL
                       AIR SEA DIR/SP/G            HT/PER HT/PER
                 (UTC) (F)     (DEG/KT/KT) (MB)    (FT/S) (FT/S)
CHESAPEAKE LIGHT 2000   58     320/ 19/ 22 1017.1
64 E VA BEACH    2000   59 70  320/ 19/ 25 1015.4    8/ 6   2/12
DUCK             2000   61 70  330/ 14/ 18 1015.5
2 E DUCK         2000                        N/A     5/ 7   2/11
10 NE DUCK       2000      71                N/A     5/ 6   2/17
OREGON INLET     2000   61 69  310/ 11/ 17 1016.4
13E OREGON INLT  2000      75                N/A     6/ 7   2/13
HATTERAS CG      2000   63 68  340/ 11/ 16 1016.9
DIAMOND BUOY     2000   62     330/ 16/ 19 1016.4    5/ 4   2/12
17 S OCRACOKE    1900          VRB 19/ 25  1016.6
CAPE LOOKOUT     2000   64     340/ 10/ 12 1017.1
BEAUFORT LAB     2000   65 70  340/  7/ 11 1016.4
30 SE NEW RIVER  2000   64 77  350/ 14/ 17 1016.8    3/12   2/12
5 SE WRIGHTSVLE  2000   63 74  350/ 10/ 12   N/A
225 S CAPE HAT   1912   72 80  340/ 17/ 23 1015.5    7/ 8
41 SE CHARLESTON 2000   66 79   10/ 12/ 17 1017.7    5/ 7   3/ 7

$$



USA.gov is the U.S. government's official web portal to all federal, state and local government web resources and services.